DKH831 ZSAM-ZSZS

Flight info

Callsign DKH831
Flight time 1h 9m
Altitude 37100
Route DOVPU5U DOVPU W643 FOC W644 ANLUD B221 SHZ W58 BK W67 HSN
Aircraft A20N/M-SDE2E3FGHIRWXY/LB1

Departure

Time 2026-04-29 15:12
Airport Xiamen Gaoqi International Airport (ZSAM)

Arrival

Time 2026-04-29 16:22
Airport Zhoushan Putuoshan International Airport (ZSZS)
Time Latitude Longitude Altitude Speed Heading
2026-04-29 14:46 24.53868 118.12682 71 ft 0 kts 141°
2026-04-29 15:02 24.53870 118.12680 71 ft 1 kts 141°
2026-04-29 15:02 24.53881 118.12670 71 ft 2 kts 141°
2026-04-29 15:03 24.53893 118.12660 71 ft 2 kts 141°
2026-04-29 15:03 24.53906 118.12651 71 ft 2 kts 164°
2026-04-29 15:03 24.53921 118.12649 71 ft 2 kts 184°
2026-04-29 15:03 24.53935 118.12653 71 ft 2 kts 204°
2026-04-29 15:04 24.53948 118.12661 71 ft 1 kts 225°
2026-04-29 15:04 24.53953 118.12667 71 ft 1 kts 234°
2026-04-29 15:04 24.53955 118.12669 71 ft 0 kts 231°
2026-04-29 15:06 24.53952 118.12667 71 ft 1 kts 231°
2026-04-29 15:06 24.53937 118.12646 71 ft 5 kts 231°
2026-04-29 15:06 24.53910 118.12607 71 ft 7 kts 243°
2026-04-29 15:06 24.53934 118.12553 71 ft 10 kts 326°
2026-04-29 15:07 24.53994 118.12499 71 ft 11 kts 297°
2026-04-29 15:07 24.53957 118.12419 71 ft 13 kts 230°
2026-04-29 15:07 24.53894 118.12332 71 ft 15 kts 232°
2026-04-29 15:07 24.53823 118.12234 71 ft 17 kts 232°
2026-04-29 15:08 24.53746 118.12125 71 ft 18 kts 232°
2026-04-29 15:08 24.53664 118.12011 71 ft 19 kts 232°
2026-04-29 15:08 24.53576 118.11888 71 ft 20 kts 232°
2026-04-29 15:08 24.53484 118.11759 71 ft 19 kts 232°
2026-04-29 15:09 24.53426 118.11679 71 ft 14 kts 232°
2026-04-29 15:09 24.53398 118.11577 71 ft 15 kts 286°
2026-04-29 15:09 24.53406 118.11546 72 ft 0 kts 285°
2026-04-29 15:10 24.53408 118.11537 72 ft 2 kts 285°
2026-04-29 15:10 24.53418 118.11506 72 ft 5 kts 300°
2026-04-29 15:10 24.53460 118.11475 72 ft 9 kts 350°
2026-04-29 15:11 24.53522 118.11520 72 ft 12 kts 52°
2026-04-29 15:11 24.53594 118.11619 72 ft 32 kts 52°
2026-04-29 15:11 24.53893 118.12038 72 ft 104 kts 52°
2026-04-29 15:11 24.54462 118.12836 78 ft 160 kts 54°
2026-04-29 15:12 24.55180 118.13823 593 ft 168 kts 53°
2026-04-29 15:12 24.55636 118.14494 1083 ft 166 kts 54°
2026-04-29 15:12 24.56544 118.15824 2044 ft 166 kts 51°
2026-04-29 15:12 24.57290 118.16854 2490 ft 183 kts 50°
2026-04-29 15:13 24.58133 118.18010 2890 ft 204 kts 51°
2026-04-29 15:13 24.59055 118.19284 3338 ft 225 kts 51°
2026-04-29 15:13 24.60067 118.20695 3855 ft 243 kts 51°
2026-04-29 15:13 24.61188 118.22146 4371 ft 261 kts 44°
2026-04-29 15:14 24.62637 118.23412 5040 ft 272 kts 33°
2026-04-29 15:14 24.64277 118.24506 5840 ft 279 kts 30°
2026-04-29 15:14 24.65972 118.25588 6611 ft 286 kts 29°
2026-04-29 15:14 24.67710 118.26699 7374 ft 293 kts 28°
2026-04-29 15:15 24.69484 118.27835 8129 ft 300 kts 27°
2026-04-29 15:15 24.71297 118.29002 8857 ft 306 kts 27°
2026-04-29 15:15 24.73148 118.30196 9558 ft 312 kts 26°
2026-04-29 15:15 24.75034 118.31409 10243 ft 318 kts 25°
2026-04-29 15:16 24.76993 118.32671 10739 ft 332 kts 26°
2026-04-29 15:16 24.79033 118.33984 11133 ft 347 kts 26°
2026-04-29 15:16 24.81127 118.35335 11770 ft 353 kts 27°
2026-04-29 15:16 24.83256 118.36719 12477 ft 356 kts 27°
2026-04-29 15:17 24.85394 118.38107 13139 ft 360 kts 26°
2026-04-29 15:17 24.87559 118.39513 13792 ft 364 kts 27°
2026-04-29 15:17 24.89752 118.40933 14417 ft 368 kts 27°
2026-04-29 15:17 24.91208 118.41901 14823 ft 371 kts 30°
2026-04-29 15:18 24.93966 118.44199 15620 ft 379 kts 40°
2026-04-29 15:18 24.95871 118.46255 16210 ft 384 kts 44°
2026-04-29 15:18 24.97722 118.48402 16773 ft 387 kts 45°
2026-04-29 15:18 24.99559 118.50555 17295 ft 391 kts 45°
2026-04-29 15:19 25.01429 118.52737 17837 ft 394 kts 45°
2026-04-29 15:19 25.03320 118.54927 18366 ft 397 kts 44°
2026-04-29 15:19 25.05255 118.57156 18856 ft 401 kts 44°
2026-04-29 15:19 25.07171 118.59361 19353 ft 404 kts 45°
2026-04-29 15:20 25.08992 118.61729 19845 ft 408 kts 51°
2026-04-29 15:20 25.10580 118.64349 20358 ft 412 kts 58°
2026-04-29 15:20 25.11972 118.67107 20827 ft 415 kts 61°
2026-04-29 15:20 25.13326 118.69946 21261 ft 418 kts 62°
2026-04-29 15:21 25.14669 118.72780 21689 ft 422 kts 62°
2026-04-29 15:21 25.16040 118.75656 22119 ft 425 kts 62°
2026-04-29 15:21 25.17415 118.78525 22566 ft 427 kts 61°
2026-04-29 15:21 25.18821 118.81444 23022 ft 430 kts 61°
2026-04-29 15:22 25.20215 118.84337 23435 ft 434 kts 61°
2026-04-29 15:22 25.21648 118.87309 23886 ft 437 kts 61°
2026-04-29 15:22 25.23074 118.90269 24345 ft 439 kts 62°
2026-04-29 15:22 25.24509 118.93249 24803 ft 442 kts 62°
2026-04-29 15:23 25.26054 118.96156 25362 ft 440 kts 55°
2026-04-29 15:23 25.27864 118.98865 25870 ft 440 kts 49°
2026-04-29 15:23 25.29907 119.01377 26289 ft 442 kts 45°
2026-04-29 15:23 25.32040 119.03837 26685 ft 445 kts 44°
2026-04-29 15:24 25.34187 119.06291 27086 ft 448 kts 44°
2026-04-29 15:24 25.36364 119.08792 27506 ft 450 kts 44°
2026-04-29 15:24 25.38515 119.11275 27890 ft 453 kts 44°
2026-04-29 15:24 25.40693 119.13806 28260 ft 456 kts 45°
2026-04-29 15:25 25.42889 119.16366 28602 ft 459 kts 44°
2026-04-29 15:25 25.45069 119.18912 28961 ft 461 kts 45°
2026-04-29 15:25 25.47274 119.21490 29344 ft 463 kts 45°
2026-04-29 15:25 25.49496 119.24085 29687 ft 465 kts 45°
2026-04-29 15:26 25.51734 119.26701 30018 ft 468 kts 44°
2026-04-29 15:26 25.53984 119.29334 30312 ft 471 kts 45°
2026-04-29 15:26 25.56226 119.31973 30617 ft 473 kts 45°
2026-04-29 15:26 25.58476 119.34628 30915 ft 475 kts 45°
2026-04-29 15:27 25.60743 119.37308 31218 ft 477 kts 45°
2026-04-29 15:27 25.63012 119.39992 31500 ft 479 kts 45°
2026-04-29 15:27 25.65288 119.42685 31776 ft 481 kts 45°
2026-04-29 15:27 25.67572 119.45391 32052 ft 483 kts 45°
2026-04-29 15:28 25.69842 119.48080 32388 ft 483 kts 45°
2026-04-29 15:28 25.71373 119.49897 32622 ft 483 kts 45°
2026-04-29 15:28 25.74540 119.53402 33104 ft 481 kts 40°
2026-04-29 15:28 25.77076 119.55824 33458 ft 480 kts 36°
2026-04-29 15:29 25.79723 119.58034 33842 ft 478 kts 31°
2026-04-29 15:29 25.85377 119.61839 34573 ft 473 kts 24°
2026-04-29 15:30 25.91209 119.65121 35298 ft 470 kts 23°
2026-04-29 15:30 25.94140 119.66763 35572 ft 471 kts 23°
2026-04-29 15:30 25.97053 119.68404 35791 ft 472 kts 23°
2026-04-29 15:30 25.99992 119.70055 35999 ft 473 kts 23°
2026-04-29 15:31 26.02983 119.71592 36219 ft 471 kts 18°
2026-04-29 15:31 26.06058 119.72803 36433 ft 467 kts 11°
2026-04-29 15:31 26.09210 119.73666 36582 ft 465 kts
2026-04-29 15:31 26.12394 119.74168 36699 ft 462 kts 359°
2026-04-29 15:32 26.15606 119.74320 36833 ft 459 kts 353°
2026-04-29 15:32 26.18744 119.74184 37008 ft 457 kts 350°
2026-04-29 15:32 26.21943 119.73957 37100 ft 458 kts 349°
2026-04-29 15:33 26.28321 119.73491 37156 ft 461 kts 349°
2026-04-29 15:33 26.34723 119.73075 37161 ft 461 kts 350°
2026-04-29 15:34 26.41189 119.72886 37159 ft 470 kts 357°
2026-04-29 15:34 26.47670 119.74132 37158 ft 480 kts 12°
2026-04-29 15:35 26.53875 119.77074 37159 ft 491 kts 27°
2026-04-29 15:35 26.59687 119.81138 37159 ft 494 kts 30°
2026-04-29 15:36 26.65474 119.85304 37160 ft 493 kts 29°
2026-04-29 15:36 26.71262 119.89404 37161 ft 493 kts 29°
2026-04-29 15:37 26.77063 119.93492 37160 ft 494 kts 29°
2026-04-29 15:37 26.82881 119.97599 37162 ft 495 kts 29°
2026-04-29 15:38 26.88725 120.01726 37163 ft 497 kts 29°
2026-04-29 15:38 26.94535 120.05844 37159 ft 496 kts 29°
2026-04-29 15:39 27.00369 120.09987 37162 ft 498 kts 29°
2026-04-29 15:39 27.06232 120.14153 37168 ft 498 kts 29°
2026-04-29 15:40 27.12084 120.18310 37159 ft 498 kts 28°
2026-04-29 15:40 27.17966 120.22450 37166 ft 500 kts 29°
2026-04-29 15:41 27.23867 120.26608 37178 ft 501 kts 28°
2026-04-29 15:41 27.29758 120.30772 37186 ft 500 kts 28°
2026-04-29 15:42 27.35650 120.34945 37187 ft 500 kts 28°
2026-04-29 15:42 27.41505 120.39098 37181 ft 501 kts 28°
2026-04-29 15:43 27.47417 120.43301 37183 ft 501 kts 28°
2026-04-29 15:43 27.53304 120.47491 37186 ft 502 kts 28°
2026-04-29 15:44 27.59205 120.51703 37182 ft 502 kts 28°
2026-04-29 15:44 27.65126 120.55933 37187 ft 504 kts 28°
2026-04-29 15:45 27.71142 120.59933 37197 ft 501 kts 20°
2026-04-29 15:45 27.77583 120.62683 37186 ft 492 kts
2026-04-29 15:46 27.84271 120.63994 37189 ft 483 kts 357°
2026-04-29 15:46 27.90941 120.64540 37200 ft 483 kts 356°
2026-04-29 15:47 27.97678 120.65114 37199 ft 485 kts 357°
2026-04-29 15:47 28.04416 120.65768 37202 ft 486 kts 357°
2026-04-29 15:48 28.11127 120.66441 37188 ft 485 kts 357°
2026-04-29 15:48 28.17867 120.67107 37210 ft 485 kts 357°
2026-04-29 15:49 28.24594 120.67770 37202 ft 485 kts 356°
2026-04-29 15:49 28.31355 120.68428 37199 ft 487 kts 357°
2026-04-29 15:50 28.38080 120.69087 37197 ft 488 kts 356°
2026-04-29 15:50 28.44888 120.69759 37201 ft 488 kts 356°
2026-04-29 15:51 28.51635 120.70438 37193 ft 488 kts 357°
2026-04-29 15:51 28.58405 120.71119 37194 ft 489 kts 356°
2026-04-29 15:52 28.65189 120.71801 37199 ft 488 kts 356°
2026-04-29 15:52 28.71983 120.72496 37204 ft 490 kts 356°
2026-04-29 15:53 28.78746 120.73241 37204 ft 492 kts 357°
2026-04-29 15:53 28.85557 120.73997 37213 ft 492 kts 357°
2026-04-29 15:54 28.92375 120.74713 37214 ft 493 kts 356°
2026-04-29 15:54 28.95811 120.75066 37044 ft 492 kts 356°
2026-04-29 15:54 28.99181 120.75412 36760 ft 490 kts 356°
2026-04-29 15:54 29.02600 120.75763 36423 ft 487 kts 356°
2026-04-29 15:55 29.05952 120.76109 35993 ft 483 kts 356°
2026-04-29 15:55 29.09288 120.76453 35476 ft 481 kts 356°
2026-04-29 15:55 29.12594 120.76794 34870 ft 481 kts 356°
2026-04-29 15:55 29.15937 120.77138 34232 ft 480 kts 356°
2026-04-29 15:56 29.19253 120.77480 33566 ft 481 kts 356°
2026-04-29 15:56 29.22590 120.77822 32918 ft 481 kts 356°
2026-04-29 15:56 29.25942 120.78168 32283 ft 481 kts 356°
2026-04-29 15:56 29.29276 120.78512 31635 ft 482 kts 356°
2026-04-29 15:57 29.32596 120.78856 31214 ft 477 kts 356°
2026-04-29 15:57 29.35878 120.79200 30769 ft 473 kts 356°
2026-04-29 15:57 29.39158 120.79540 30323 ft 469 kts 356°
2026-04-29 15:57 29.42390 120.79877 29893 ft 465 kts 356°
2026-04-29 15:58 29.45575 120.80205 29458 ft 461 kts 356°
2026-04-29 15:58 29.48753 120.80534 29018 ft 458 kts 356°
2026-04-29 15:58 29.51916 120.80859 28601 ft 455 kts 356°
2026-04-29 15:58 29.55069 120.81187 28157 ft 452 kts 356°
2026-04-29 15:59 29.58191 120.81720 27671 ft 462 kts
2026-04-29 15:59 29.61122 120.83368 27219 ft 476 kts 33°
2026-04-29 15:59 29.63418 120.86057 26824 ft 478 kts 53°
2026-04-29 15:59 29.65152 120.89291 26450 ft 474 kts 60°
2026-04-29 16:00 29.66729 120.92580 26045 ft 471 kts 60°
2026-04-29 16:00 29.68342 120.95823 25646 ft 467 kts 58°
2026-04-29 16:00 29.70028 120.99013 25219 ft 463 kts 56°
2026-04-29 16:00 29.71745 121.02125 24812 ft 459 kts 56°
2026-04-29 16:01 29.73482 121.05194 24414 ft 455 kts 54°
2026-04-29 16:01 29.75209 121.08220 24020 ft 451 kts 54°
2026-04-29 16:01 29.76912 121.11192 23640 ft 448 kts 54°
2026-04-29 16:01 29.78629 121.14190 23253 ft 445 kts 54°
2026-04-29 16:02 29.80318 121.17145 22857 ft 442 kts 54°
2026-04-29 16:02 29.81996 121.20085 22453 ft 438 kts 54°
2026-04-29 16:02 29.83645 121.22975 22050 ft 435 kts 54°
2026-04-29 16:02 29.85312 121.25900 21632 ft 433 kts 54°
2026-04-29 16:03 29.86952 121.28780 21225 ft 430 kts 54°
2026-04-29 16:03 29.88542 121.31661 20807 ft 428 kts 60°
2026-04-29 16:03 29.89615 121.34840 20387 ft 427 kts 77°
2026-04-29 16:03 29.89975 121.38197 19984 ft 422 kts 88°
2026-04-29 16:04 29.90079 121.41543 19582 ft 419 kts 90°
2026-04-29 16:04 29.90146 121.44864 19184 ft 416 kts 90°
2026-04-29 16:04 29.90222 121.48205 18772 ft 413 kts 90°
2026-04-29 16:04 29.90317 121.51460 18375 ft 410 kts 89°
2026-04-29 16:05 29.90427 121.54729 17969 ft 408 kts 89°
2026-04-29 16:05 29.90545 121.57999 17566 ft 406 kts 89°
2026-04-29 16:05 29.90664 121.61224 17170 ft 404 kts 89°
2026-04-29 16:05 29.90783 121.64425 16770 ft 401 kts 89°
2026-04-29 16:06 29.90903 121.67631 16373 ft 398 kts 89°
2026-04-29 16:06 29.91019 121.70805 15973 ft 395 kts 90°
2026-04-29 16:06 29.91136 121.73952 15567 ft 392 kts 89°
2026-04-29 16:06 29.91248 121.77047 15182 ft 389 kts 90°
2026-04-29 16:07 29.91361 121.80151 14796 ft 386 kts 89°
2026-04-29 16:07 29.91435 121.82178 14539 ft 384 kts 89°
2026-04-29 16:07 29.91583 121.86270 14010 ft 379 kts 89°
2026-04-29 16:07 29.91691 121.89269 13611 ft 377 kts 89°
2026-04-29 16:08 29.91798 121.92267 13235 ft 374 kts 89°
2026-04-29 16:08 29.91903 121.95230 12862 ft 370 kts 89°
2026-04-29 16:08 29.92004 121.98171 12488 ft 367 kts 89°
2026-04-29 16:08 29.92104 122.01086 12112 ft 364 kts 89°
2026-04-29 16:09 29.92202 122.04013 11731 ft 361 kts 89°
2026-04-29 16:09 29.92295 122.06892 11365 ft 357 kts 89°
2026-04-29 16:09 29.92385 122.09699 11020 ft 354 kts 89°
2026-04-29 16:09 29.92479 122.12537 10669 ft 350 kts 89°
2026-04-29 16:10 29.92569 122.15315 10312 ft 347 kts 89°
2026-04-29 16:10 29.92658 122.18067 10003 ft 341 kts 89°
2026-04-29 16:10 29.92744 122.20731 9940 ft 326 kts 89°
2026-04-29 16:10 29.92829 122.23309 9668 ft 321 kts 89°
2026-04-29 16:11 29.92910 122.25887 9350 ft 316 kts 89°
2026-04-29 16:11 29.92990 122.28389 9031 ft 313 kts 89°
2026-04-29 16:11 29.93066 122.30891 8719 ft 309 kts 88°
2026-04-29 16:11 29.93144 122.33321 8382 ft 301 kts 88°
2026-04-29 16:12 29.93219 122.35698 8062 ft 290 kts 87°
2026-04-29 16:12 29.93266 122.37205 7864 ft 286 kts 87°
2026-04-29 16:12 29.93359 122.40241 7450 ft 280 kts 86°
2026-04-29 16:12 29.93426 122.42441 7137 ft 276 kts 87°
2026-04-29 16:13 29.93154 122.44617 6778 ft 273 kts 115°
2026-04-29 16:13 29.91982 122.46278 6450 ft 267 kts 145°
2026-04-29 16:13 29.90298 122.47079 6122 ft 263 kts 172°
2026-04-29 16:13 29.88469 122.47250 5830 ft 266 kts 177°
2026-04-29 16:14 29.86619 122.47386 5535 ft 265 kts 176°
2026-04-29 16:14 29.85382 122.47491 5338 ft 265 kts 176°
2026-04-29 16:14 29.82927 122.47724 4956 ft 265 kts 174°
2026-04-29 16:14 29.81101 122.47908 4662 ft 264 kts 174°
2026-04-29 16:15 29.79248 122.48097 4405 ft 263 kts 175°
2026-04-29 16:15 29.77426 122.48287 4390 ft 262 kts 174°
2026-04-29 16:15 29.75653 122.48457 4314 ft 248 kts 178°
2026-04-29 16:15 29.74031 122.48062 4220 ft 240 kts 216°
2026-04-29 16:16 29.72978 122.46645 3973 ft 231 kts 257°
2026-04-29 16:16 29.72797 122.44876 3767 ft 226 kts 275°
2026-04-29 16:16 29.72810 122.43053 3532 ft 228 kts 275°
2026-04-29 16:16 29.72780 122.41225 3290 ft 228 kts 274°
2026-04-29 16:17 29.73009 122.39497 2999 ft 216 kts 304°
2026-04-29 16:17 29.74042 122.38370 2896 ft 201 kts 340°
2026-04-29 16:17 29.74923 122.38075 2896 ft 196 kts 353°
2026-04-29 16:17 29.76725 122.37900 2638 ft 192 kts 358°
2026-04-29 16:18 29.78034 122.37818 2626 ft 185 kts 356°
2026-04-29 16:18 29.79313 122.37710 2559 ft 182 kts 355°
2026-04-29 16:18 29.80577 122.37583 2330 ft 182 kts 355°
2026-04-29 16:18 29.81839 122.37449 2091 ft 181 kts 356°
2026-04-29 16:19 29.83070 122.37318 1910 ft 173 kts 355°
2026-04-29 16:19 29.84230 122.37193 1682 ft 162 kts 356°
2026-04-29 16:19 29.85318 122.37077 1425 ft 153 kts 356°
2026-04-29 16:19 29.86326 122.36970 1228 ft 137 kts 357°
2026-04-29 16:20 29.87223 122.36876 1023 ft 123 kts 356°
2026-04-29 16:20 29.88078 122.36787 863 ft 121 kts 356°
2026-04-29 16:20 29.88922 122.36695 700 ft 120 kts 355°
2026-04-29 16:20 29.89753 122.36588 520 ft 121 kts 356°
2026-04-29 16:21 29.90614 122.36521 386 ft 125 kts 357°
2026-04-29 16:21 29.91185 122.36465 284 ft 126 kts 356°
2026-04-29 16:21 29.92310 122.36347 48 ft 115 kts 356°
2026-04-29 16:21 29.93045 122.36269 12 ft 87 kts 356°
2026-04-29 16:22 29.93481 122.36226 11 ft 38 kts 354°
2026-04-29 16:22 29.93630 122.36210 11 ft 16 kts 354°
2026-04-29 16:22 29.93746 122.36195 11 ft 16 kts 356°
2026-04-29 16:22 29.93830 122.36178 11 ft 11 kts 312°
2026-04-29 16:23 29.93828 122.36085 11 ft 12 kts 262°
2026-04-29 16:23 29.93821 122.36018 11 ft 7 kts 265°
2026-04-29 16:23 29.93815 122.35947 11 ft 9 kts 254°
2026-04-29 16:23 29.93753 122.35922 11 ft 11 kts 174°
2026-04-29 16:24 29.93684 122.35930 11 ft 7 kts 175°
2026-04-29 16:24 29.93656 122.35899 11 ft 4 kts 268°
2026-04-29 16:24 29.93653 122.35864 11 ft 2 kts 264°
2026-04-29 16:24 29.93652 122.35849 11 ft 0 kts 265°
2026-04-29 16:25 29.93652 122.35847 11 ft 0 kts 265°